Wind_Speed
27 27 28 30 31 31 28 26 25 27 28 28 29 29 28 28 27 28 26 24 23 22 22 21 20 19 18 17 16 16 15 14 13 12 11 10 9 9 8 8 7 7 7 7 7 7 7 8 9
30 30 31 32 32 29 27 26 28 29 30 30 30 29 29 29 29 28 27 26 25 23 22 21 21 20 19 18 17 16 15 14 13 12 11 11 10 10 9 9 8 8 7 7 7 8 8 9 10
33 33 33 33 31 27 25 27 30 31 32 31 30 30 30 30 29 29 28 27 26 25 24 22 21 20 20 19 18 17 16 15 14 13 12 11 11 10 10 9 9 8 8 7 8 8 9 10 10
36 36 36 35 30 27 27 29 31 32 32 32 31 31 30 29 30 29 29 28 27 26 25 23 22 21 21 20 19 18 17 16 15 14 13 12 12 11 10 9 9 8 8 8 9 9 10 11 12
40 40 38 35 30 28 29 30 32 33 33 33 33 32 31 30 30 30 29 29 28 27 26 25 24 23 22 21 20 19 18 17 15 14 14 13 12 11 10 10 9 8 9 9 10 10 11 12 13
43 43 41 36 31 30 30 32 33 33 33 34 34 33 32 31 31 30 30 29 29 28 27 26 25 24 23 22 21 20 19 18 17 16 15 14 13 12 11 10 10 10 10 10 11 11 12 12 13
45 45 43 38 35 33 32 33 34 33 33 34 34 34 32 32 32 31 30 30 29 28 28 27 26 24 23 23 22 21 20 19 18 17 16 15 13 12 12 11 11 10 10 11 11 12 12 13 14
47 47 45 41 37 34 34 35 35 34 34 34 35 34 33 33 32 31 31 30 30 29 28 27 26 25 24 24 23 22 20 19 18 17 16 15 14 13 12 12 11 11 11 12 12 13 14 15 16
50 51 47 42 38 36 36 37 37 36 35 35 35 34 34 34 33 32 31 31 30 30 29 28 27 26 25 25 23 22 21 20 19 18 16 16 14 13 13 12 12 12 13 13 13 14 15 16 17
52 52 47 42 40 39 40 40 39 38 37 35 34 34 34 34 34 33 32 31 31 30 30 29 28 27 26 25 24 23 22 21 20 18 17 16 16 15 14 14 13 13 14 14 14 15 16 18 19
54 52 47 44 43 43 43 43 42 40 38 36 34 34 35 35 35 34 33 33 32 31 30 29 28 28 27 26 25 24 23 21 20 19 18 17 17 16 15 15 15 14 15 15 16 17 18 19 21
56 53 49 47 46 45 45 46 46 43 40 38 38 37 36 36 35 35 35 34 33 32 31 30 29 29 28 27 26 25 23 22 21 20 19 18 18 17 16 16 16 16 16 17 17 18 19 21 22
58 54 52 49 48 48 48 48 48 46 43 42 40 39 37 36 36 36 36 36 34 33 31 30 30 30 29 28 26 25 24 23 22 21 20 19 19 18 17 17 17 17 18 18 19 20 21 22 23
59 57 55 53 52 51 52 51 51 48 45 44 42 40 39 37 37 37 37 36 35 33 32 31 31 30 29 28 27 26 25 24 23 22 21 20 20 19 18 18 18 18 19 20 21 22 23 24 25
61 61 59 57 54 53 55 55 53 48 47 45 44 42 41 39 38 37 37 36 36 35 33 32 31 31 30 29 28 27 26 25 24 23 22 22 21 20 20 19 19 20 21 22 23 24 25 25 26
63 64 63 59 57 56 58 57 53 50 50 47 45 44 42 40 39 38 38 37 37 36 34 33 32 32 31 30 29 28 27 26 25 24 23 23 22 21 21 21 21 22 23 24 25 25 26 27 28
65 65 64 60 58 58 59 57 53 53 52 50 47 45 44 42 40 39 39 38 38 37 36 34 34 33 32 31 30 29 28 27 26 26 25 24 23 23 23 23 23 23 24 25 26 27 28 28 29
65 65 64 62 60 60 61 59 55 54 54 52 50 48 46 44 42 41 40 39 39 39 37 36 35 35 34 33 31 30 29 28 27 27 26 25 25 25 25 25 25 25 26 27 27 28 29 30 31
63 64 64 62 61 61 62 61 57 56 56 55 53 51 48 45 44 44 43 42 41 40 39 38 37 36 35 33 32 31 30 30 29 28 27 27 27 27 27 27 27 27 28 28 29 30 30 31 32
64 65 64 63 62 63 63 63 61 59 58 56 55 53 51 48 47 46 45 45 44 42 41 40 39 38 36 35 34 34 33 32 31 29 29 29 29 29 29 28 28 29 30 31 31 32 32 33 33
64 63 63 62 61 62 64 65 64 61 60 59 57 55 53 51 50 49 47 46 46 44 43 41 40 39 38 37 37 36 34 33 31 31 31 31 31 30 30 30 31 32 32 33 33 33 33 34 34
62 60 60 61 61 62 64 66 65 63 62 60 59 57 55 53 52 51 50 48 47 45 44 43 42 41 40 39 38 37 35 33 33 34 34 33 33 33 33 33 33 33 34 34 34 35 35 35 35
59 58 58 59 61 63 64 66 66 64 64 61 59 58 56 54 53 52 51 49 48 47 46 45 44 43 42 41 39 38 37 36 36 36 35 35 35 36 36 35 35 35 36 36 36 36 36 36 37
56 57 58 58 59 64 65 65 67 65 62 60 59 57 56 55 54 53 52 51 49 49 48 47 45 44 43 42 41 40 38 38 38 38 38 38 38 37 37 37 37 37 37 38 38 38 38 38 38
57 55 56 57 59 63 63 65 68 63 60 59 58 57 56 55 55 54 52 52 51 50 49 48 47 46 45 44 42 41 40 40 40 40 39 39 39 38 38 39 39 39 39 39 39 39 39 39 38
57 58 57 56 57 58 61 65 66 62 58 57 57 57 56 56 56 55 53 52 51 51 50 49 48 47 46 45 43 42 41 41 41 40 40 40 40 40 40 40 40 40 40 40 40 39 39 39 39
53 58 56 54 54 54 58 62 63 62 58 56 56 56 56 56 56 55 55 54 52 51 51 50 49 48 47 46 45 44 43 42 41 41 41 41 40 40 41 41 41 41 42 41 41 40 40 39 39
50 53 57 57 55 53 53 58 62 60 57 56 55 55 55 55 55 55 55 55 54 53 52 51 50 49 48 47 46 45 44 43 43 43 42 41 41 42 42 42 42 42 42 42 41 40 40 40 39
49 52 56 57 59 56 53 54 56 55 55 54 52 53 53 54 55 55 55 54 54 53 52 51 50 49 49 48 48 46 45 44 43 43 42 42 42 43 43 43 43 42 42 41 40 40 40 40 40
49 49 53 56 58 58 55 52 52 50 50 51 51 50 51 52 53 54 54 54 53 52 51 50 49 49 48 48 47 46 45 45 44 44 43 43 43 43 43 43 43 43 42 41 41 40 40 40 40
Wind_Direction
240 237 235 234 234 233 232 230 229 227 226 226 227 226 225 225 224 226 225 224 224 224 223 224 225 225 227 228 229 232 236 238 240 242 244 247 252 255 260 263 267 274 281 287 293 299 304 306 308
239 238 236 235 235 234 232 230 229 228 227 226 227 226 225 225 225 226 226 226 226 226 226 227 227 228 228 229 231 233 235 237 239 241 243 247 252 257 261 263 268 274 280 286 292 298 302 305 306
239 238 237 236 234 233 231 229 228 228 227 227 227 226 225 225 226 227 226 226 227 227 227 228 230 231 231 232 234 235 235 236 239 241 243 248 253 258 261 264 268 272 278 284 290 296 301 304 305
239 238 237 236 233 231 230 228 229 228 227 226 227 227 226 226 227 227 227 227 227 227 228 230 231 232 233 235 235 234 235 237 239 240 244 249 254 257 259 261 266 270 278 284 290 296 301 303 305
238 237 237 235 232 229 229 228 227 227 227 226 227 228 227 227 227 227 227 227 227 228 229 230 232 233 234 234 233 233 235 237 238 240 246 250 251 251 253 258 263 271 280 285 291 296 299 302 304
238 237 237 234 231 228 227 227 226 227 227 226 227 227 226 226 227 227 227 226 226 227 229 231 232 233 234 232 232 232 233 235 238 242 246 247 246 248 251 257 263 271 278 284 289 294 297 301 304
238 237 236 233 229 227 227 228 227 228 227 226 226 226 225 225 226 227 226 226 226 226 227 229 231 233 233 232 231 231 233 235 238 242 243 243 243 245 251 257 262 269 275 282 287 292 296 300 303
237 237 235 232 229 227 227 229 228 227 227 226 226 225 225 225 225 226 225 226 226 225 226 228 231 233 233 231 230 232 233 235 238 240 239 239 241 245 251 256 261 267 273 280 286 290 295 299 302
237 236 234 231 230 227 227 228 228 227 226 226 226 225 224 225 225 224 225 225 225 225 226 229 231 232 231 230 230 231 233 235 237 237 235 236 240 245 250 255 261 267 274 280 286 290 295 298 301
236 236 234 232 229 228 227 227 226 225 225 225 226 225 224 224 225 224 224 225 225 226 227 228 230 230 229 228 229 230 233 235 235 234 234 236 240 245 250 255 261 268 274 280 285 291 295 298 301
236 236 233 231 229 227 226 227 227 225 224 224 225 225 224 224 224 224 224 225 225 226 227 229 229 229 228 227 228 230 233 233 232 232 234 237 241 246 251 256 262 268 274 279 285 291 295 298 301
236 235 233 230 229 227 226 226 227 226 224 224 224 223 222 222 223 223 224 224 225 226 227 228 228 227 227 227 228 230 231 230 230 232 235 238 242 247 252 258 264 270 275 280 286 291 296 298 301
235 233 232 230 228 227 226 226 226 226 224 224 223 224 223 223 222 222 222 223 224 225 226 227 226 226 226 226 226 227 228 228 229 232 236 239 243 248 254 260 267 272 277 282 287 292 296 298 300
234 233 231 228 227 226 226 225 225 224 225 224 224 223 223 222 222 222 222 222 223 224 225 225 224 223 222 222 223 224 226 228 231 234 237 240 244 250 256 262 268 273 278 283 288 292 296 298 300
233 233 230 228 226 226 227 224 224 224 225 225 224 224 223 222 222 221 221 221 222 223 223 223 222 220 220 220 222 224 227 229 232 235 239 242 247 253 258 264 269 274 278 282 287 291 294 297 299
233 232 230 227 227 226 228 225 224 224 225 224 224 224 223 223 222 221 220 220 221 221 222 221 220 219 219 221 223 225 228 231 233 236 240 245 249 254 260 265 270 275 279 283 287 290 294 296 298
231 232 230 228 227 227 229 227 223 224 224 224 224 223 223 222 222 221 220 220 220 220 220 219 219 219 220 222 224 227 230 232 235 238 242 246 251 257 261 266 271 275 280 284 288 291 294 295 297
231 232 231 229 228 228 229 228 224 225 225 224 224 223 222 221 221 221 220 220 219 220 219 219 219 220 222 223 226 229 231 233 236 239 242 247 253 259 263 267 272 276 281 285 288 291 293 295 297
233 233 232 230 229 229 229 228 225 224 224 223 223 223 222 221 220 220 220 219 219 220 220 221 221 223 224 226 228 230 232 234 237 241 245 250 255 260 265 269 273 277 281 285 287 289 291 294 296
230 231 230 230 229 230 229 228 226 224 224 223 223 223 222 221 220 221 220 220 220 221 222 222 223 225 226 228 229 231 233 236 240 244 248 253 257 261 266 270 274 277 280 283 285 288 290 293 295
228 229 230 230 230 231 230 229 226 224 224 223 222 222 222 221 221 221 221 222 221 221 222 224 225 226 228 229 231 233 236 239 242 246 250 253 257 262 266 270 273 277 280 282 285 287 289 292 294
226 227 229 231 230 231 231 231 226 225 224 224 223 222 222 222 222 222 222 223 223 223 224 224 225 227 228 230 232 235 238 240 243 247 250 255 259 263 267 270 274 277 279 281 283 286 288 290 292
227 226 228 230 231 232 231 232 227 226 224 223 224 224 223 223 224 224 224 224 224 224 225 225 226 228 230 232 234 236 239 242 245 249 253 257 260 264 268 271 273 276 278 280 282 285 288 290 291
224 226 227 229 231 233 229 232 229 225 224 224 224 225 225 224 224 225 225 225 225 225 226 227 228 229 231 233 236 238 241 244 248 251 254 258 261 264 267 270 272 274 277 279 282 284 286 288 290
220 222 224 227 229 232 229 232 229 224 224 224 225 226 226 226 226 226 226 226 227 228 228 229 230 232 233 235 237 240 243 246 249 252 255 258 261 264 267 270 272 274 276 278 281 284 286 287 289
221 221 222 225 228 231 230 232 229 226 223 224 225 226 226 227 227 227 227 227 228 229 230 231 232 233 235 237 239 241 244 247 249 252 255 258 261 264 267 269 272 274 276 279 281 283 285 286 288
220 223 223 227 228 230 232 232 230 227 224 223 223 225 226 227 227 228 228 229 229 230 230 231 233 235 236 238 240 243 245 247 250 253 255 258 261 264 266 269 271 273 276 278 280 282 284 285 287
220 222 223 224 225 227 230 231 231 228 225 224 223 225 226 227 228 228 229 230 230 231 231 232 234 235 238 240 242 243 245 247 249 252 255 257 260 263 265 268 270 273 275 277 279 281 282 284 285
217 219 223 226 227 226 230 231 228 229 227 226 224 225 226 227 228 229 230 230 231 232 233 234 234 236 238 240 242 243 245 247 249 252 255 257 260 263 265 268 270 273 275 277 279 280 281 282 283
220 221 222 224 226 225 227 229 227 227 226 226 225 224 225 226 227 229 230 231 232 233 234 235 236 237 238 240 241 243 245 247 249 252 255 258 260 262 265 267 270 273 275 276 278 279 279 281 283
Height
5823 5823 5824 5826 5827 5829 5832 5836 5838 5840 5842 5844 5846 5848 5852 5854 5857 5860 5861 5862 5864 5866 5868 5869 5871 5873 5874 5875 5877 5878 5879 5880 5880 5881 5882 5882 5883 5883 5883 5882 5882 5882 5881 5880 5880 5879 5878 5877 5877
5817 5818 5819 5820 5822 5825 5829 5832 5833 5835 5836 5839 5841 5844 5846 5849 5851 5854 5856 5858 5860 5863 5865 5866 5868 5870 5872 5873 5874 5875 5877 5877 5878 5879 5880 5880 5881 5881 5881 5881 5880 5880 5879 5878 5878 5877 5877 5876 5875
5810 5811 5813 5814 5817 5821 5825 5826 5828 5829 5831 5834 5836 5839 5841 5845 5847 5849 5852 5854 5857 5859 5861 5863 5865 5867 5869 5870 5872 5873 5874 5875 5876 5877 5878 5878 5879 5879 5879 5879 5878 5878 5877 5877 5876 5875 5875 5874 5873
5803 5804 5806 5810 5813 5817 5819 5820 5821 5823 5826 5829 5831 5834 5838 5841 5843 5845 5848 5850 5853 5855 5858 5860 5862 5864 5865 5867 5869 5870 5871 5873 5874 5875 5875 5876 5876 5876 5877 5876 5876 5876 5875 5875 5874 5874 5873 5872 5871
5794 5797 5799 5803 5808 5812 5813 5814 5816 5818 5821 5824 5827 5830 5833 5836 5838 5841 5843 5846 5848 5851 5854 5856 5858 5860 5862 5864 5865 5867 5868 5870 5871 5872 5873 5873 5874 5874 5874 5874 5874 5874 5873 5873 5872 5871 5870 5870 5869
5786 5789 5792 5797 5803 5805 5807 5808 5810 5812 5815 5818 5821 5824 5828 5831 5833 5836 5839 5841 5844 5847 5850 5852 5854 5856 5858 5860 5862 5864 5865 5867 5868 5869 5870 5871 5871 5872 5872 5872 5872 5871 5871 5870 5870 5869 5868 5867 5866
5778 5780 5784 5790 5795 5799 5801 5802 5804 5807 5810 5813 5815 5819 5822 5825 5828 5831 5834 5837 5840 5842 5845 5848 5850 5852 5854 5856 5858 5860 5862 5863 5865 5866 5867 5868 5868 5869 5869 5869 5869 5869 5869 5868 5867 5866 5865 5864 5863
5767 5771 5776 5782 5788 5793 5794 5795 5798 5801 5804 5806 5809 5813 5817 5820 5823 5826 5829 5832 5835 5838 5841 5843 5846 5848 5850 5852 5854 5856 5858 5860 5861 5862 5863 5865 5865 5866 5866 5866 5866 5866 5866 5865 5865 5864 5863 5862 5860
5756 5761 5767 5776 5781 5786 5787 5788 5791 5794 5797 5800 5804 5808 5811 5814 5817 5821 5824 5827 5830 5833 5836 5839 5841 5844 5846 5848 5850 5852 5854 5856 5858 5859 5860 5861 5862 5863 5863 5864 5864 5863 5863 5863 5862 5861 5860 5858 5857
5744 5750 5761 5769 5772 5776 5778 5780 5783 5787 5791 5794 5798 5802 5805 5808 5812 5815 5819 5822 5825 5828 5831 5834 5836 5839 5841 5844 5846 5848 5850 5852 5854 5855 5857 5858 5859 5860 5860 5860 5860 5860 5860 5859 5858 5857 5856 5855 5853
5734 5742 5752 5757 5761 5765 5768 5772 5775 5779 5784 5789 5792 5795 5799 5802 5806 5810 5813 5816 5819 5823 5826 5829 5831 5834 5837 5840 5842 5844 5846 5848 5850 5852 5853 5855 5856 5856 5857 5857 5857 5857 5856 5856 5855 5854 5853 5851 5850
5723 5732 5739 5745 5750 5754 5758 5762 5766 5771 5777 5781 5784 5788 5791 5796 5800 5804 5807 5810 5814 5817 5820 5823 5826 5829 5832 5835 5837 5840 5842 5844 5846 5848 5850 5851 5852 5853 5853 5853 5853 5853 5853 5852 5851 5850 5849 5847 5845
5710 5720 5727 5733 5738 5743 5747 5752 5757 5763 5769 5773 5777 5781 5785 5789 5793 5797 5800 5804 5807 5811 5815 5818 5821 5824 5827 5830 5833 5835 5838 5840 5842 5844 5846 5847 5848 5849 5849 5849 5849 5849 5849 5848 5847 5846 5844 5843 5841
5700 5706 5712 5719 5726 5732 5737 5742 5747 5756 5760 5765 5769 5774 5778 5783 5786 5790 5794 5798 5802 5806 5809 5812 5815 5819 5822 5825 5828 5831 5833 5836 5838 5840 5841 5843 5844 5845 5845 5845 5845 5845 5844 5844 5843 5841 5840 5838 5836
5685 5691 5698 5706 5715 5721 5725 5730 5739 5748 5751 5756 5762 5767 5771 5775 5779 5784 5788 5792 5796 5799 5803 5807 5810 5813 5817 5820 5823 5826 5829 5831 5833 5835 5837 5838 5840 5840 5841 5841 5841 5841 5840 5839 5838 5837 5835 5833 5831
5670 5675 5684 5697 5704 5710 5714 5722 5732 5738 5742 5748 5754 5759 5764 5769 5773 5777 5781 5785 5789 5793 5797 5801 5804 5808 5811 5815 5818 5821 5824 5826 5828 5830 5832 5834 5835 5836 5836 5836 5836 5836 5835 5834 5833 5831 5830 5828 5826
5654 5662 5674 5686 5693 5698 5702 5713 5723 5727 5732 5738 5744 5750 5756 5761 5766 5770 5774 5778 5782 5786 5791 5795 5799 5802 5806 5809 5813 5816 5819 5821 5823 5825 5827 5828 5830 5830 5831 5831 5831 5831 5830 5829 5828 5826 5824 5822 5820
5646 5655 5664 5674 5682 5687 5692 5701 5712 5716 5722 5729 5735 5741 5747 5753 5758 5763 5767 5771 5775 5780 5784 5788 5792 5796 5800 5804 5807 5811 5813 5815 5818 5820 5821 5823 5824 5825 5825 5826 5826 5825 5824 5823 5822 5820 5818 5816 5814
5636 5643 5651 5662 5669 5673 5679 5687 5698 5704 5710 5717 5724 5731 5738 5745 5750 5754 5758 5763 5768 5772 5777 5782 5786 5790 5794 5798 5802 5805 5807 5809 5812 5814 5815 5817 5818 5819 5819 5820 5820 5819 5818 5817 5816 5814 5812 5810 5808
5620 5627 5637 5647 5654 5660 5667 5673 5683 5691 5698 5706 5714 5721 5729 5735 5740 5745 5750 5755 5760 5765 5770 5775 5779 5784 5788 5792 5795 5798 5800 5803 5806 5808 5809 5811 5812 5812 5813 5813 5813 5813 5812 5811 5809 5808 5806 5804 5801
5605 5615 5627 5635 5642 5647 5653 5659 5669 5679 5686 5694 5702 5710 5718 5725 5731 5737 5742 5747 5752 5757 5763 5768 5772 5777 5781 5784 5787 5791 5794 5797 5800 5801 5802 5803 5804 5806 5806 5807 5806 5806 5805 5804 5802 5801 5799 5797 5795
5593 5607 5615 5622 5628 5633 5640 5645 5657 5667 5674 5683 5693 5701 5709 5716 5722 5728 5733 5739 5744 5750 5755 5759 5764 5768 5773 5776 5780 5784 5787 5790 5792 5793 5795 5796 5797 5798 5799 5799 5799 5799 5798 5797 5795 5794 5792 5790 5788
5585 5596 5603 5609 5615 5620 5626 5631 5644 5653 5662 5674 5684 5692 5700 5707 5713 5719 5725 5731 5736 5741 5746 5751 5755 5760 5764 5768 5772 5776 5780 5782 5784 5786 5788 5789 5790 5791 5791 5792 5792 5791 5790 5789 5788 5786 5785 5783 5780
5574 5582 5589 5595 5599 5602 5613 5619 5628 5642 5655 5666 5675 5682 5690 5697 5703 5709 5715 5721 5726 5731 5737 5742 5747 5752 5756 5760 5764 5768 5772 5774 5776 5778 5780 5781 5782 5783 5783 5784 5784 5783 5782 5781 5780 5779 5777 5775 5773
5559 5568 5575 5579 5582 5589 5604 5606 5616 5635 5647 5656 5665 5672 5679 5685 5692 5698 5705 5711 5717 5722 5728 5733 5738 5743 5747 5751 5756 5760 5763 5765 5768 5770 5771 5773 5774 5775 5775 5775 5775 5775 5774 5773 5772 5771 5769 5767 5765
5547 5555 5563 5570 5576 5585 5591 5594 5611 5625 5636 5645 5653 5660 5666 5673 5680 5687 5694 5700 5707 5713 5718 5724 5729 5734 5738 5742 5747 5750 5753 5756 5759 5761 5763 5764 5765 5766 5766 5766 5766 5766 5765 5764 5763 5762 5761 5759 5757
5537 5543 5555 5563 5569 5575 5578 5588 5600 5612 5623 5633 5641 5648 5655 5662 5669 5676 5683 5689 5696 5702 5708 5714 5719 5724 5729 5733 5737 5741 5744 5747 5750 5752 5753 5755 5756 5757 5757 5757 5757 5757 5757 5756 5755 5754 5752 5750 5748
5527 5536 5543 5548 5555 5562 5569 5578 5589 5601 5612 5622 5630 5637 5645 5651 5658 5665 5671 5678 5684 5691 5697 5703 5709 5714 5719 5723 5728 5731 5735 5738 5740 5742 5744 5746 5747 5747 5748 5748 5748 5748 5747 5747 5746 5745 5743 5742 5739
5517 5524 5530 5539 5546 5554 5562 5572 5582 5592 5604 5613 5620 5627 5634 5640 5646 5653 5660 5667 5674 5680 5687 5693 5698 5704 5709 5713 5718 5721 5725 5728 5730 5732 5735 5736 5737 5738 5739 5739 5739 5739 5738 5738 5737 5736 5734 5732 5731
5508 5514 5522 5529 5536 5545 5554 5566 5573 5583 5592 5601 5609 5616 5623 5629 5635 5642 5649 5656 5663 5670 5676 5682 5688 5693 5699 5703 5707 5711 5715 5717 5720 5723 5725 5726 5727 5728 5729 5729 5729 5729 5729 5728 5728 5726 5725 5723 5721